Flag for Nepal Weather past 2 weeks in Kathmandu, Nepal

Now
82 °F

Passing clouds.


Feels Like: 86 °F
Forecast: 64 / 73 °F
Wind: 5 mph from Southeast

Location: Kathmandu Airport

Current Time: Jul 30, 2015 at 12:56:22 PM

Latest Report: Jul 30, 2015 at 11:35 AM


Visibility: N/A

Pressure: 29.80 "Hg (25.70 "Hg at 1305m altitude)

Humidity: 66%

Dew point: 70 °F

Historic Weather in Kathmandu — Graph

°F

Kathmandu temperature yesterday

Maximum temperature yesterday: 84 °F (at 11:35 AM)
Minimum temperature yesterday: 70 °F (at 2:35 AM)
Average temperature yesterday: 74 °F

Past Weeks' High & Low Weather Summary

 TemperatureHumidityPressure
High86 °F (Jul 27, 1:35 PM)100% (Jul 15, 8:35 PM)29.98 "Hg (Jul 15, 8:35 PM)
Low66 °F (Jul 25, 7:35 PM)49% (Jul 27, 1:35 PM)29.62 "Hg (Jul 15, 2:35 PM)
Average74 °F84%29.82 "Hg
* Reported Jul 15 11:35 AM — Jul 30 11:35 AM, Kathmandu, Weather by CustomWeather, © 2015

Note: Actual official high and low records may vary slightly from our data, if they occured in-between our weather recording intervals... More about our weather records

Advertising

Kathmandu weather history for previous 24 hours

 ConditionsComfort  
Time TempWeatherWind HumidityBarometerVisibility
11:35 AM
Thu, Jul 30
82 °FPassing clouds.5 mph66%29.80 "HgN/A
10:35 AM81 °FPassing clouds.6 mph70%29.80 "Hg5 mi
9:35 AM77 °FScattered clouds.No wind83%29.83 "Hg5 mi
8:35 AM75 °FScattered clouds.No wind78%29.83 "Hg4 mi
7:35 AM72 °FScattered clouds.5 mph88%29.83 "Hg4 mi
6:35 AM68 °FFog.No wind100%29.80 "Hg3 mi
5:35 AM68 °FFog.No wind100%29.77 "Hg2 mi
4:35 AM68 °FPassing clouds.No wind100%29.77 "Hg4 mi
3:35 AM68 °FFog.No wind100%29.80 "Hg2 mi
2:35 AM70 °FPartly cloudy.No wind94%29.83 "Hg2 mi
12:35 AM70 °FPartly cloudy.No wind94%29.86 "Hg2 mi
11:35 PM
Wed, Jul 29
70 °FThunderstorms. Mostly cloudy.5 mph94%29.86 "Hg2 mi
10:35 PM70 °FThunderstorms. Mostly cloudy.No wind94%29.86 "Hg2 mi
9:35 PM70 °FThunderstorms. Partly cloudy.No wind94%29.86 "Hg3 mi
8:35 PM72 °FThunderstorms. Partly cloudy.No wind88%29.80 "Hg3 mi
7:35 PM72 °FThunderstorms. More clouds than sun.5 mph94%29.77 "Hg3 mi
6:35 PM72 °FThunderstorms. More clouds than sun.5 mph94%29.77 "Hg3 mi
5:35 PM73 °FThunderstorms. Broken clouds.6 mph89%29.74 "Hg4 mi
4:35 PM75 °FLight rain. Broken clouds.6 mph89%29.74 "Hg4 mi
3:35 PM77 °FRain. Broken clouds.3 mph79%29.74 "Hg4 mi
2:35 PM81 °FBroken clouds.6 mph70%29.74 "Hg5 mi
1:35 PM81 °FThunderstorms. Broken clouds.12 mph70%29.77 "Hg4 mi
12:35 PM81 °FBroken clouds.7 mph70%29.80 "HgN/A
Weather by CustomWeather, © 2015

See weather overviewHow to use our weather pages